User: anonymous   Login
Location: Mainz-Finthen
(49.9906°N, 8.1713°E)
Time: 10:46:30
(UTC+00:00)
Language:

BEESAT - Orbit

View from above orbital plane
View from above orbital plane
View from above satellite
View from above satellite

Ground track
Ground track

The orbit data is extracted from the following two-line orbital elements,

1 35933U 09051C   22276.56730137  .00000899  00000-0  21078-3 0  9996
2 35933  98.5476 137.0141 0006915  87.4301 272.7688 14.56985059691913
Epoch (UTC): 03 October 2022 13:36:54
Eccentricity: 0.0006915
inclination: 98.5476°
perigee height: 698 km
apogee height: 708 km
right ascension of ascending node: 137.0141°
argument of perigee: 87.4301°
revolutions per day: 14.56985059
mean anomaly at epoch: 272.7688°
orbit number at epoch: 69191

The dashed part of the orbit path shows where the satellite is in the earth's shadow,  

DLR